To NAV CANADA Home Page Login to a new session Search on AWWS site Feedback and Comments Disclaimer Vers la page française équivalente Tips FAQ What's new on the site To the Forecasts and Observations / NOTAM section To "File a Flight Plan" website Publications and other links Update of the User's profile FIC Telephone Numbers My Weather Data Folder Route Weather Data Regional Weather Data Local Weather Data To the Forecasts and Observations / NOTAM section
Request Generated 05/02/2016 at 21:20:36 UTC . Weather information available at that time is displayed.

METAR/TAF

FLIN FLON/MB    

METAR CYFO 022100Z 34017G23KT 15SM BKN250 23/01 A2988 RMK CS5 SLP129
DENSITY ALT 2100FT=
METAR CYFO 022000Z 28012G20KT 240V310 15SM SCT250 23/M00 A2990 RMK
CI4 SLP134 DENSITY ALT 2100FT=
METAR CYFO 021900Z 25012G21KT 210V280 15SM BKN250 22/00 A2992 RMK CS6
SLP141 DENSITY ALT 2000FT=

CYFO - No TAF is issued for this station

Your time UTC time
Weather data provided by Environment Canada and NAV CANADA